GFSFLT2_sfc_dewp_306.txt.gz
Dewpoint
19 20 21 21 21 23 23 23 23 28 29 30 30 31 32 33 34 35 36 37 38 40 41 43 45 47 50
19 20 20 21 22 22 21 21 21 25 29 31 31 31 30 31 32 33 34 35 36 38 39 41 43 44 48
20 21 21 22 22 22 22 23 22 27 29 30 30 30 30 31 31 31 32 33 35 37 38 40 42 43 48
21 22 22 23 23 22 22 23 23 22 25 26 29 30 30 30 30 30 31 32 34 36 37 41 41 42 44
22 23 25 25 23 23 22 22 23 23 23 23 24 25 25 28 28 31 30 31 34 37 40 40 40 42 44
24 24 25 26 24 24 24 23 21 25 23 23 25 24 25 26 28 28 29 30 31 32 33 35 37 39 40
24 24 23 24 26 27 25 25 24 23 24 22 24 23 24 23 28 29 29 30 30 31 32 33 35 37 38
25 24 24 26 28 27 27 27 27 26 25 23 24 23 24 24 28 29 30 30 31 31 31 33 35 37 37
27 26 29 29 29 28 29 28 25 24 26 25 23 23 23 24 24 29 30 31 31 32 32 34 38 39 38
26 26 28 29 30 27 25 23 23 23 25 25 25 24 23 25 25 26 27 33 34 33 33 34 38 38 38
21 24 23 22 23 24 26 27 27 26 28 28 26 25 24 23 24 27 26 26 26 26 27 37 37 39 38
22 20 19 20 23 24 24 24 25 27 28 29 29 28 25 24 23 24 25 25 27 31 33 32 36 37 38
18 19 20 23 23 23 24 25 26 27 27 29 29 29 28 25 23 23 23 24 26 28 30 33 35 35 34
22 21 22 22 22 23 23 23 23 23 25 29 29 29 27 27 25 24 25 25 26 29 31 33 32 33 34
21 20 20 21 21 22 22 22 22 21 21 24 28 30 29 28 26 27 27 27 27 28 30 30 29 30 32
21 21 21 20 20 21 22 22 21 21 21 22 24 25 25 29 31 28 28 28 29 30 29 28 26 29 30
19 19 20 21 20 20 20 21 21 20 21 23 23 23 20 19 23 32 30 29 29 27 27 28 26 27 29

GFSFLT2_sfc_dewp_312.txt.gz
Dewpoint
18 19 20 22 21 23 24 24 25 29 30 32 33 34 34 35 35 34 34 34 35 36 37 38 39 39 40
18 19 20 21 21 23 22 22 23 25 29 32 33 34 35 35 35 34 34 34 34 35 35 35 36 37 38
19 20 21 21 22 23 24 24 22 26 29 30 32 33 33 33 34 34 34 33 32 32 32 34 35 36 38
21 21 20 22 23 23 23 23 22 21 25 27 30 31 32 33 33 33 33 33 33 32 32 33 33 33 34
21 22 22 22 21 23 23 22 22 23 23 24 25 25 26 28 29 31 32 33 33 33 33 33 33 33 33
23 24 22 23 25 23 23 22 22 22 23 22 24 24 25 26 29 30 31 32 33 34 34 34 33 33 33
30 29 29 25 25 25 22 21 22 22 26 26 27 26 26 22 29 30 31 32 32 33 34 34 34 34 33
22 25 25 24 24 24 25 25 26 27 28 26 26 24 24 25 28 29 30 31 32 32 33 33 34 33 33
27 27 29 30 33 31 30 29 27 24 24 25 23 24 23 24 26 28 30 30 31 32 33 33 33 33 33
20 23 25 25 26 27 28 26 25 24 22 23 24 25 25 28 28 27 28 29 30 31 32 32 32 31 32
23 22 26 26 22 22 22 23 23 24 23 24 27 29 28 25 26 27 28 29 30 29 30 31 31 31 31
17 17 16 17 18 20 20 22 23 23 24 26 27 25 26 24 24 27 28 28 30 30 31 30 31 31 32
16 15 15 17 17 20 22 23 24 25 22 25 26 27 27 26 25 26 26 27 29 30 30 31 31 31 31
14 16 19 21 21 23 24 24 24 25 26 26 27 27 27 27 27 26 27 26 29 29 30 30 30 31 31
17 18 18 19 20 22 23 24 23 22 23 26 27 27 28 27 25 26 26 27 27 28 29 27 28 28 29
17 19 19 19 20 22 22 23 23 22 23 24 25 25 26 26 27 25 26 27 28 28 29 29 28 30 31
18 18 19 19 20 20 20 20 21 21 22 24 25 24 21 19 21 24 25 25 26 26 26 26 25 25 28

GFSFLT2_sfc_dewp_315.txt.gz
Dewpoint
20 21 20 22 22 24 25 25 25 28 30 31 32 33 34 35 35 36 36 36 35 36 37 37 38 38 38
19 20 21 22 22 23 22 21 24 26 29 31 32 33 34 35 35 35 35 35 35 35 35 35 35 36 37
20 21 22 23 22 23 24 24 23 27 28 29 30 31 32 34 34 34 34 35 35 35 34 33 34 35 36
22 21 21 22 23 23 23 25 24 22 24 27 29 30 32 33 33 34 34 34 35 35 34 34 34 34 34
21 21 22 21 22 23 23 25 25 25 24 25 25 27 28 28 29 31 32 33 33 34 34 35 35 35 35
22 22 23 23 24 24 25 24 23 27 23 22 27 26 27 28 29 30 31 32 32 33 34 34 35 35 35
29 29 28 29 28 29 26 25 23 24 24 22 25 25 27 25 30 30 30 31 32 33 33 34 34 35 35
21 22 23 24 24 24 24 24 24 25 26 24 25 25 27 27 29 30 30 30 30 31 32 33 33 34 34
25 26 27 28 27 26 27 25 25 25 26 27 25 23 22 21 23 27 28 29 30 31 32 32 33 33 33
24 26 26 26 27 25 26 25 23 22 24 24 23 22 21 24 22 23 29 28 29 31 32 31 31 30 31
28 25 24 23 27 28 26 25 23 22 23 23 23 23 23 23 26 26 24 26 27 28 30 30 31 30 29
19 19 18 18 19 22 23 23 23 22 22 23 22 23 23 22 21 23 24 25 26 27 27 29 30 31 31
17 17 17 18 18 21 21 21 21 22 20 23 24 24 24 23 22 23 23 24 26 26 26 27 28 29 29
16 17 19 20 20 21 21 21 21 22 24 25 24 25 23 24 24 24 24 23 25 25 26 27 28 28 28
18 18 18 18 19 21 21 22 21 21 21 23 24 25 25 25 23 24 24 23 24 25 25 25 26 27 28
18 18 19 19 19 20 20 20 19 19 20 22 22 22 23 24 26 24 24 23 24 25 25 25 24 25 28
19 19 19 18 18 18 19 19 18 18 19 20 20 21 19 17 20 24 23 23 23 23 24 24 23 23 24

GFSFLT2_sfc_dewp_318.txt.gz
Dewpoint
21 21 20 21 22 24 25 24 26 28 29 30 31 32 33 34 35 36 36 37 37 37 37 37 37 38 38
20 20 20 21 22 23 22 21 24 26 30 30 31 32 33 34 35 36 36 36 36 36 37 36 35 35 36
20 22 22 22 22 23 23 24 23 27 29 29 28 29 31 32 33 34 34 35 35 35 36 36 35 35 36
22 22 22 22 23 22 22 25 24 24 26 27 28 29 29 30 31 32 33 33 34 35 35 35 35 35 36
20 21 21 22 22 22 23 24 25 26 25 25 24 25 27 30 30 30 30 31 32 32 33 34 34 35 36
20 20 21 22 24 25 24 25 24 27 25 23 24 23 25 28 30 30 31 32 32 32 33 34 34 35 35
23 23 25 28 25 23 23 27 27 26 24 22 23 22 25 24 29 30 31 32 32 32 32 33 33 34 34
21 22 24 23 23 22 23 23 24 25 25 23 24 24 25 28 31 31 30 30 30 31 31 31 33 33 33
25 26 27 28 28 27 28 27 25 25 27 28 27 26 27 24 24 26 27 27 29 30 30 32 33 33 32
24 26 27 27 28 26 25 24 24 23 24 23 23 23 19 23 21 23 26 29 29 30 30 29 31 31 29
27 26 26 25 25 25 26 26 23 23 24 24 18 20 20 22 23 23 24 26 26 25 27 28 29 29 28
22 20 19 19 21 22 25 26 26 24 24 24 22 21 17 19 19 21 23 24 24 24 25 27 29 30 30
18 18 18 19 20 21 22 22 23 23 21 22 22 21 21 20 20 21 21 22 25 25 26 26 26 27 27
17 19 20 19 19 21 20 20 19 20 22 23 23 23 21 22 22 21 23 22 23 25 26 26 26 26 27
18 18 18 19 18 20 20 20 19 19 20 21 24 24 24 23 22 23 23 23 24 24 24 23 24 26 26
19 19 18 18 19 19 20 18 17 17 17 18 19 18 22 23 25 23 23 23 24 24 24 23 23 25 26
20 20 19 19 18 18 18 18 17 17 17 18 18 17 16 14 17 22 22 23 24 23 24 24 23 24 24

GFSFLT2_sfc_dewp_321.txt.gz
Dewpoint
21 21 20 20 21 23 25 24 25 28 30 30 31 32 33 34 35 35 36 37 37 38 38 38 38 38 38
20 20 20 21 21 22 21 21 23 27 29 30 31 32 32 33 33 34 35 36 36 36 36 37 38 37 37
20 22 22 22 21 22 22 23 23 27 29 29 30 29 30 31 32 33 34 35 35 36 36 36 37 37 37
21 22 22 22 23 22 22 24 24 24 27 29 29 29 29 29 30 30 31 32 33 34 35 35 35 36 37
20 20 21 21 22 23 22 23 24 26 26 26 26 25 26 28 27 28 30 32 32 33 34 34 34 35 35
20 19 20 21 22 24 27 26 24 27 25 25 25 24 25 25 27 28 29 30 31 32 33 34 34 34 35
24 25 25 26 25 26 23 22 21 24 26 23 24 23 24 22 28 30 31 32 32 32 33 34 34 34 33
22 24 26 26 26 23 22 22 23 24 24 22 24 23 25 26 30 31 30 29 29 29 29 29 30 31 32
25 26 26 27 27 29 28 26 26 26 26 25 27 27 27 28 28 29 28 27 27 30 30 30 33 33 31
23 25 26 26 29 26 23 21 22 20 23 25 24 24 21 24 23 23 25 27 25 25 26 30 31 29 27
25 26 26 26 25 25 25 24 22 22 24 24 19 22 22 22 23 24 23 23 24 25 28 27 27 26 25
27 25 22 20 21 22 23 25 26 25 24 23 22 22 19 20 20 22 21 22 23 23 23 25 27 28 29
22 21 19 20 20 21 21 22 22 22 19 22 22 21 20 18 18 19 19 21 23 23 23 24 24 25 25
18 18 20 20 19 20 19 20 18 19 22 22 22 22 19 20 21 21 21 20 21 23 24 25 25 26 26
19 19 18 19 19 20 20 18 16 17 18 20 23 23 23 22 21 22 22 22 22 23 23 23 24 25 25
20 19 19 19 19 19 20 18 17 17 17 18 15 13 18 20 22 21 22 22 22 23 24 23 22 23 24
18 19 20 20 20 19 18 18 18 18 17 18 13 12 14 12 15 19 18 19 21 23 23 23 22 23 24

GFSFLT2_sfc_dewp_324.txt.gz
Dewpoint
21 21 20 20 21 23 24 24 25 29 30 31 31 32 33 33 34 34 35 36 37 37 38 38 39 39 39
20 20 20 21 21 21 21 21 23 26 30 31 31 32 32 32 32 32 33 34 35 36 37 37 37 38 38
20 21 22 22 21 22 22 23 22 26 28 29 30 31 30 31 31 31 32 33 34 35 35 36 37 37 38
20 21 22 22 22 22 22 23 23 23 26 28 30 30 30 29 29 28 27 30 32 33 33 34 34 35 36
20 20 20 21 21 22 22 23 25 25 25 26 26 27 26 29 28 28 28 29 30 32 32 33 34 35 35
20 19 19 20 21 22 24 25 22 25 25 25 26 25 25 25 28 28 29 31 31 32 32 33 35 36 35
24 24 23 24 24 24 25 25 22 22 24 22 24 23 25 23 28 29 30 31 31 31 32 31 31 31 32
23 24 25 25 25 24 24 23 22 23 24 23 24 23 25 25 30 30 30 29 29 29 29 29 30 31 31
26 27 28 28 28 27 26 26 25 25 26 24 24 25 26 26 27 30 28 28 28 28 28 27 26 27 29
22 23 24 25 27 27 22 20 22 22 23 24 23 24 20 23 23 25 24 27 27 27 27 26 26 23 27
22 23 24 26 26 25 25 24 22 21 24 23 19 22 23 23 23 24 24 24 24 23 25 24 25 24 23
26 26 25 25 23 23 23 24 25 24 24 24 16 21 16 18 18 20 21 21 21 21 21 24 26 26 26
27 25 24 23 21 21 21 21 21 21 19 22 22 20 19 17 17 18 19 20 21 22 22 23 23 23 24
23 22 21 20 20 21 18 20 17 19 22 22 22 21 16 19 20 19 20 20 21 22 22 22 23 24 24
20 19 19 20 20 21 20 18 14 17 17 19 22 22 22 20 18 19 19 20 21 22 22 22 22 23 24
20 19 19 19 19 19 20 16 17 17 17 18 13 11 15 18 21 19 19 20 20 21 23 22 21 22 23
19 18 19 18 19 19 19 19 18 18 18 18 13 13 13 11 14 18 17 18 18 18 20 21 21 21 21

GFSFLT2_sfc_dewp_327.txt.gz
Dewpoint
21 21 20 20 21 23 23 22 24 28 29 30 32 32 33 33 33 34 34 35 36 36 37 38 38 39 39
20 20 20 20 22 21 21 21 23 26 29 30 31 31 32 31 31 32 33 34 35 36 36 37 37 37 38
19 21 22 22 21 21 21 22 22 27 27 28 30 31 31 32 31 30 29 28 30 33 33 34 35 36 36
20 20 21 22 22 21 21 23 23 24 26 27 29 30 30 30 30 29 28 29 30 30 33 34 35 36 36
19 20 20 20 20 22 22 22 25 26 25 25 26 26 26 28 28 28 28 29 30 31 32 32 33 33 34
19 19 19 20 21 21 23 23 22 24 25 23 25 24 25 26 28 29 30 30 30 32 33 34 35 34 33
23 23 21 23 24 23 23 23 23 23 22 21 23 22 24 24 28 29 29 31 31 31 30 31 30 30 31
23 24 24 24 24 23 22 23 24 24 23 23 24 23 25 25 30 30 28 28 29 29 29 29 29 30 28
26 26 28 29 28 25 22 25 25 25 26 24 24 23 24 25 27 28 27 27 28 27 27 27 28 28 26
22 23 24 24 26 25 23 19 23 20 23 23 22 23 20 23 23 24 24 27 26 26 26 27 26 23 21
23 22 22 23 24 25 26 25 21 19 23 23 17 20 20 22 22 23 24 23 22 22 24 24 24 23 21
24 24 24 24 25 26 25 24 24 23 23 24 11 18 7 16 16 18 19 20 20 19 20 22 25 25 26
25 25 25 26 25 23 22 21 21 21 19 21 21 20 16 16 16 17 18 19 21 21 21 22 22 23 22
26 26 25 23 22 21 18 20 16 18 22 22 22 20 14 17 18 17 19 18 20 20 21 21 22 22 23
22 22 22 21 20 21 20 18 14 16 17 19 21 21 21 19 17 19 18 19 19 20 20 20 21 21 22
22 22 21 20 19 19 20 16 17 17 17 17 13 11 14 18 22 19 19 19 19 20 20 20 19 20 21
23 20 20 18 19 17 18 19 18 18 17 17 12 13 13 11 14 18 17 17 18 18 19 19 18 19 19

GFSFLT2_sfc_dewp_333.txt.gz
Dewpoint
21 21 20 21 22 22 23 23 24 29 29 30 31 31 32 33 32 32 34 35 34 35 37 37 37 38 38
19 20 20 21 21 21 19 20 23 25 29 29 30 31 33 33 33 32 31 30 31 32 32 34 36 36 36
18 21 21 22 21 21 21 22 21 26 27 28 28 30 31 32 31 32 31 31 31 31 31 33 33 35 35
18 18 19 21 21 19 19 22 22 22 24 25 29 26 26 27 28 28 28 29 30 31 31 32 33 33 34
18 19 19 20 19 21 21 22 22 24 22 23 22 23 24 25 26 28 29 30 30 31 32 32 32 33 35
21 21 21 21 21 23 22 21 18 23 22 18 23 23 24 24 27 28 28 28 29 30 31 31 32 33 32
27 26 25 24 24 23 21 20 19 20 22 19 23 22 23 21 27 28 28 28 28 29 29 29 30 30 31
22 25 25 24 23 21 20 20 21 22 24 24 23 21 22 23 27 26 26 27 27 28 28 28 28 29 29
26 27 28 29 28 26 26 24 23 22 26 24 21 21 20 18 18 24 24 26 26 24 25 26 27 27 27
20 22 23 23 26 25 30 26 25 24 21 24 22 21 19 20 19 21 19 23 24 24 24 24 24 22 21
23 22 23 23 23 23 23 23 22 22 21 24 25 23 22 20 20 18 17 17 17 18 22 23 24 23 21
22 22 22 22 23 24 24 24 25 24 23 25 25 23 22 19 17 17 17 17 18 18 18 21 23 24 24
25 22 23 24 25 26 26 26 27 26 26 25 24 23 23 21 19 19 19 18 19 19 19 19 19 20 19
21 24 26 27 26 27 26 26 25 24 23 22 22 22 22 21 21 20 21 20 19 19 19 19 20 20 19
20 19 20 20 22 24 25 25 23 22 22 22 22 23 23 23 21 20 20 21 20 20 19 19 19 19 19
21 21 21 21 22 23 24 24 23 22 21 22 21 20 19 19 23 20 20 20 21 20 20 20 20 19 18
22 22 22 23 22 23 23 23 22 22 21 21 20 18 15 14 14 19 21 21 20 21 20 20 20 20 18